TimeEST,TemperatureF,Dew PointF,Humidity,Sea Level PressureIn,VisibilityMPH,Wind Direction,Wind SpeedMPH,Gust SpeedMPH,PrecipitationIn,Events,Conditions,WindDirDegrees,DateUTC
12:53 AM,54.0,42.1,64,30.12,10.0,South,11.5,20.7,N/A,,Partly Cloudy,180,2013-11-06 05:53:00
1:53 AM,54.0,41.0,62,30.09,10.0,South,11.5,-,N/A,,Scattered Clouds,180,2013-11-06 06:53:00
2:53 AM,55.0,39.9,57,30.06,10.0,South,11.5,-,N/A,,Overcast,180,2013-11-06 07:53:00
3:53 AM,54.0,43.0,66,30.04,10.0,South,10.4,-,0.00,,Overcast,190,2013-11-06 08:53:00
4:53 AM,54.0,42.1,64,30.00,10.0,South,12.7,-,N/A,,Overcast,180,2013-11-06 09:53:00
5:53 AM,55.0,39.9,57,29.98,10.0,South,12.7,-,N/A,,Overcast,190,2013-11-06 10:53:00
6:53 AM,54.0,43.0,66,29.93,10.0,South,10.4,21.9,0.00,Rain,Light Rain,190,2013-11-06 11:53:00
7:53 AM,57.0,45.0,64,29.91,10.0,South,17.3,27.6,0.00,,Overcast,190,2013-11-06 12:53:00
8:53 AM,54.0,48.0,80,29.91,7.0,SSW,16.1,26.5,0.00,Rain,Light Rain,200,2013-11-06 13:53:00
9:53 AM,53.1,48.9,86,29.90,3.0,South,15.0,26.5,0.04,Rain,Light Rain,190,2013-11-06 14:53:00
10:53 AM,55.0,51.1,86,29.87,7.0,SSW,12.7,24.2,0.07,Rain,Light Rain,200,2013-11-06 15:53:00
11:03 AM,55.4,51.8,88,29.86,8.0,South,17.3,28.8,0.01,Rain,Light Rain,190,2013-11-06 16:03:00
11:34 AM,55.4,51.8,88,29.85,5.0,SSW,16.1,24.2,0.02,Rain,Light Rain,200,2013-11-06 16:34:00
11:53 AM,55.9,52.0,87,29.85,6.0,SSW,15.0,24.2,0.02,Rain,Light Rain,200,2013-11-06 16:53:00
12:53 PM,55.9,52.0,87,29.81,4.0,SSW,12.7,-,0.07,Rain,Light Rain,200,2013-11-06 17:53:00
1:53 PM,55.9,52.0,87,29.79,7.0,SSW,10.4,20.7,0.03,Rain,Light Rain,200,2013-11-06 18:53:00
2:53 PM,57.0,52.0,83,29.76,10.0,SSW,12.7,24.2,0.03,,Overcast,210,2013-11-06 19:53:00
3:20 PM,55.4,51.8,88,29.79,10.0,SW,18.4,31.1,N/A,,Overcast,220,2013-11-06 20:20:00
3:53 PM,55.9,52.0,87,29.80,4.0,SW,16.1,26.5,0.00,Rain,Light Rain,220,2013-11-06 20:53:00
4:53 PM,55.9,52.0,87,29.79,10.0,SW,13.8,25.3,0.00,,Overcast,220,2013-11-06 21:53:00
5:53 PM,55.9,52.0,87,29.80,9.0,SW,11.5,24.2,N/A,,Overcast,220,2013-11-06 22:53:00
6:18 PM,55.4,51.8,88,29.80,4.0,SW,11.5,23.0,0.00,Rain,Light Rain,230,2013-11-06 23:18:00
6:30 PM,55.4,51.8,88,29.82,5.0,West,27.6,36.8,0.00,Rain,Light Rain,270,2013-11-06 23:30:00
6:37 PM,51.8,46.4,82,29.83,5.0,West,20.7,36.8,0.01,Rain,Light Rain,270,2013-11-06 23:37:00
6:46 PM,51.8,46.4,82,29.84,6.0,West,18.4,28.8,0.01,Rain,Light Rain,260,2013-11-06 23:46:00
6:53 PM,51.1,46.0,83,29.85,10.0,West,19.6,29.9,0.01,,Overcast,260,2013-11-06 23:53:00
7:04 PM,50.0,46.4,87,29.86,10.0,West,18.4,-,N/A,,Overcast,270,2013-11-07 00:04:00
7:53 PM,48.0,44.1,86,29.91,10.0,West,19.6,27.6,N/A,,Overcast,280,2013-11-07 00:53:00
8:27 PM,46.4,42.8,87,29.93,10.0,WNW,19.6,25.3,N/A,,Overcast,290,2013-11-07 01:27:00
8:53 PM,45.0,41.0,86,29.94,3.0,NW,18.4,25.3,0.00,Rain,Light Rain,320,2013-11-07 01:53:00
9:05 PM,44.6,39.2,81,29.95,6.0,WNW,16.1,25.3,0.00,,Haze,300,2013-11-07 02:05:00
9:53 PM,44.1,39.9,85,29.97,8.0,NW,13.8,21.9,0.00,Rain,Light Rain,310,2013-11-07 02:53:00
10:26 PM,44.6,37.4,76,29.96,10.0,NW,12.7,-,0.00,,Overcast,310,2013-11-07 03:26:00
10:53 PM,43.0,37.9,82,29.99,10.0,WNW,10.4,-,0.00,,Mostly Cloudy,290,2013-11-07 03:53:00
11:53 PM,42.1,37.9,85,30.01,10.0,WNW,10.4,-,N/A,,Scattered Clouds,290,2013-11-07 04:53:00